Time,TemperatureF,DewpointF,PressureIn,WindDirection,WindDirectionDegrees,WindSpeedMPH,WindSpeedGustMPH,Humidity,HourlyPrecipIn,Conditions,Clouds,dailyrainin,SoftwareType,DateUTC
2013-07-31 00:00:00,45.0,44.0,30.16,NNE,20,9.0,-999.0,97,-99.99,,,-99.99,,2013-07-31 00:00:00,
2013-07-31 00:43:00,45.0,44.0,30.16,NNE,20,9.0,-999.0,97,-99.99,,,-99.99,,2013-07-31 00:43:00,
2013-07-31 00:53:00,45.0,44.0,30.16,NNE,20,9.0,-999.0,97,-99.99,,,-99.99,,2013-07-31 00:53:00,
2013-07-31 01:00:00,46.0,46.0,30.17,NNE,20,6.0,-999.0,100,-99.99,,,-99.99,,2013-07-31 01:00:00,
2013-07-31 01:32:00,46.0,46.0,30.17,NNE,20,6.0,-999.0,100,-99.99,,,-99.99,,2013-07-31 01:32:00,
2013-07-31 01:42:00,46.0,46.0,30.17,NNE,20,6.0,-999.0,100,-99.99,,,-99.99,,2013-07-31 01:42:00,
2013-07-31 01:52:00,46.0,46.0,30.17,NNE,20,6.0,-999.0,100,-99.99,,,-99.99,,2013-07-31 01:52:00,
2013-07-31 02:00:00,48.0,-99.9,30.16,NNW,330,9.0,-999.0,-999,-99.99,,,-99.99,,2013-07-31 02:00:00,
2013-07-31 02:43:00,48.0,-99.9,30.16,NNW,330,9.0,-999.0,-999,-99.99,,,-99.99,,2013-07-31 02:43:00,
2013-07-31 02:53:00,48.0,-99.9,30.16,NNW,330,9.0,-999.0,-999,-99.99,,,-99.99,,2013-07-31 02:53:00,
2013-07-31 04:00:00,49.0,-99.9,30.15,WNW,300,7.0,-999.0,-999,-99.99,,,-99.99,,2013-07-31 04:00:00,
2013-07-31 04:32:00,49.0,-99.9,30.15,WNW,300,7.0,-999.0,-999,-99.99,,,-99.99,,2013-07-31 04:32:00,
2013-07-31 04:42:00,49.0,-99.9,30.15,WNW,300,7.0,-999.0,-999,-99.99,,,-99.99,,2013-07-31 04:42:00,
2013-07-31 04:52:00,49.0,-99.9,30.15,WNW,300,7.0,-999.0,-999,-99.99,,,-99.99,,2013-07-31 04:52:00,
2013-07-31 05:00:00,49.0,-99.9,30.14,WNW,300,9.0,-999.0,-999,-99.99,,,-99.99,,2013-07-31 05:00:00,
2013-07-31 05:32:00,49.0,-99.9,30.14,WNW,300,9.0,-999.0,-999,-99.99,,,-99.99,,2013-07-31 05:32:00,
2013-07-31 05:43:00,49.0,-99.9,30.14,WNW,300,9.0,-999.0,-999,-99.99,,,-99.99,,2013-07-31 05:43:00,
2013-07-31 05:52:00,49.0,-99.9,30.14,WNW,300,9.0,-999.0,-999,-99.99,,,-99.99,,2013-07-31 05:52:00,
2013-07-31 07:00:00,51.0,-99.9,30.13,West,270,8.0,-999.0,-999,-99.99,,,-99.99,,2013-07-31 07:00:00,
2013-07-31 07:32:00,51.0,-99.9,30.13,West,270,8.0,-999.0,-999,-99.99,,,-99.99,,2013-07-31 07:32:00,
2013-07-31 07:43:00,51.0,-99.9,30.13,West,270,8.0,-999.0,-999,-99.99,,,-99.99,,2013-07-31 07:43:00,
2013-07-31 07:52:00,51.0,-99.9,30.13,West,270,8.0,-999.0,-999,-99.99,,,-99.99,,2013-07-31 07:52:00,
2013-07-31 08:00:00,51.0,-99.9,30.13,WSW,250,5.0,-999.0,-999,-99.99,,,-99.99,,2013-07-31 08:00:00,
2013-07-31 08:33:00,51.0,-99.9,30.13,WSW,250,5.0,-999.0,-999,-99.99,,,-99.99,,2013-07-31 08:33:00,
2013-07-31 08:42:00,51.0,-99.9,30.13,WSW,250,5.0,-999.0,-999,-99.99,,,-99.99,,2013-07-31 08:42:00,
2013-07-31 08:53:00,51.0,-99.9,30.13,WSW,250,5.0,-999.0,-999,-99.99,,,-99.99,,2013-07-31 08:53:00,
2013-07-31 09:00:00,51.0,-99.9,30.13,SSW,210,7.0,-999.0,-999,-99.99,,,-99.99,,2013-07-31 09:00:00,
2013-07-31 09:44:00,51.0,-99.9,30.13,SSW,210,7.0,-999.0,-999,-99.99,,,-99.99,,2013-07-31 09:44:00,
2013-07-31 09:52:00,51.0,-99.9,30.13,SSW,210,7.0,-999.0,-999,-99.99,,,-99.99,,2013-07-31 09:52:00,
2013-07-31 10:00:00,51.0,-99.9,30.12,SSW,210,10.0,-999.0,-999,-99.99,,,-99.99,,2013-07-31 10:00:00,
2013-07-31 10:44:00,51.0,-99.9,30.12,SSW,210,10.0,-999.0,-999,-99.99,,,-99.99,,2013-07-31 10:44:00,
2013-07-31 10:52:00,51.0,-99.9,30.12,SSW,210,10.0,-999.0,-999,-99.99,,,-99.99,,2013-07-31 10:52:00,
2013-07-31 12:00:00,50.0,-99.9,30.10,SE,130,3.0,-999.0,-999,-99.99,,,-99.99,,2013-07-31 12:00:00,
2013-07-31 12:53:00,50.0,-99.9,30.10,SE,130,3.0,-999.0,-999,-99.99,,,-99.99,,2013-07-31 12:53:00,
2013-07-31 13:00:00,49.0,-99.9,30.09,ESE,110,12.0,-999.0,-999,-99.99,,,-99.99,,2013-07-31 13:00:00,
2013-07-31 14:00:00,50.0,-99.9,30.08,East,90,9.0,-999.0,-999,-99.99,,,-99.99,,2013-07-31 14:00:00,
2013-07-31 15:00:00,50.0,-99.9,30.08,ENE,70,10.0,-999.0,-999,-99.99,,,-99.99,,2013-07-31 15:00:00,
2013-07-31 15:44:00,50.0,-99.9,30.08,ENE,70,10.0,-999.0,-999,-99.99,,,-99.99,,2013-07-31 15:44:00,
2013-07-31 15:53:00,50.0,-99.9,30.08,ENE,70,10.0,-999.0,-999,-99.99,,,-99.99,,2013-07-31 15:53:00,
2013-07-31 16:00:00,50.0,-99.9,30.09,East,80,16.0,-999.0,-999,-99.99,,,-99.99,,2013-07-31 16:00:00,
2013-07-31 16:33:00,50.0,-99.9,30.09,East,80,16.0,-999.0,-999,-99.99,,,-99.99,,2013-07-31 16:33:00,
2013-07-31 16:44:00,50.0,-99.9,30.09,East,80,16.0,-999.0,-999,-99.99,,,-99.99,,2013-07-31 16:44:00,
2013-07-31 16:53:00,50.0,-99.9,30.09,East,80,16.0,-999.0,-999,-99.99,,,-99.99,,2013-07-31 16:53:00,
2013-07-31 22:00:00,51.0,48.0,30.09,NNE,20,8.0,-999.0,91,-99.99,,,-99.99,,2013-07-31 22:00:00,
2013-07-31 22:42:00,51.0,48.0,30.09,NNE,20,8.0,-999.0,91,-99.99,,,-99.99,,2013-07-31 22:42:00,
2013-07-31 22:52:00,51.0,48.0,30.09,NNE,20,8.0,-999.0,91,-99.99,,,-99.99,,2013-07-31 22:52:00,
2013-07-31 23:00:00,50.0,47.0,30.08,North,10,8.0,-999.0,92,-99.99,,,-99.99,,2013-07-31 23:00:00,
2013-07-31 23:42:00,50.0,47.0,30.08,North,10,8.0,-999.0,92,-99.99,,,-99.99,,2013-07-31 23:42:00,
2013-07-31 23:52:00,50.0,47.0,30.08,North,10,8.0,-999.0,92,-99.99,,,-99.99,,2013-07-31 23:52:00,